Location: ??????
(41.3747°N, 22.5491°E)
Time: 04:48:30
(UTC+00:00)

CENTAUR R/B - Pass Details

Date: 01 December 2020
Orbit: 750 x 1438 km, 63.4° (Epoch: 11 January)

Event Time Altitude Azimuth Distance (km) Brightness Sun altitude
Rises 18:00:04 0° 229° (SW) 3,372 6.0 -32.9°
Reaches altitude 10° 18:02:25 10° 234° (SW) 2,512 5.2 -33.4°
Enters shadow 18:07:44 54° 297° (WNW) 1,158 3.0 -34.4°
